Medicine Lodge, KS

1:42 PM CST on January 16, 2017 (GMT -0600)
Medicine Lodge

Weather History for KP28 - July, 2013

Change the Weather History Date:

Wednesday, July 3, 2013

  Actual Average Record
Temperature  
Mean Temperature 71 °F 81 °F  
Max Temperature 87 °F 93 °F 107 °F (1879)
Min Temperature 54 °F 69 °F 49 °F (1904)
Degree Days  
Heating Degree Days 0 0  
Month to date heating degree days 0 0  
Since 1 June heating degree days 4 3  
Since 1 July heating degree days 0 0  
Cooling Degree Days 6 16  
Month to date cooling degree days 15 47  
Year to date cooling degree days 562 556  
Since 1 June cooling degree days 419 400  
Growing Degree Days 20 (Base 50)    
Moisture  
Dew Point 48 °F    
Average Humidity 56    
Maximum Humidity 86    
Minimum Humidity 25    
Precipitation  
Precipitation 0.00 in 0.13 in 2.77 in (1981)
Month to date precipitation 0.00 0.41  
Year to date precipitation 12.57 14.26  
Snow  
Snow 0.00 in 0.00 in - ()
Month to date snowfall 0.0 0.0  
Since 1 June snowfall 0.0 0.0  
Since 1 July snowfall 0.0 0.0  
Snow Depth 0.00 in    
Sea Level Pressure  
Sea Level Pressure 30.01 in    
Wind  
Wind Speed 6 mph (SE)    
Max Wind Speed 17 mph    
Max Gust Speed 22 mph    
T = Trace of Precipitation, MM = Missing Value Source: NWS Daily Summary

Daily Weather History Graph

Daily Weather History Graph

Search for Another Location

Airport or City:

Trip Planner

Search our weather history database for the weather conditions in past years. The results will help you decide how hot, cold, wet, or windy it might be!

Date:

Astronomy

Jul. 03, 2013 Rise Set
Actual Time 6:18 AM CDT 8:58 PM CDT
Civil Twilight 5:47 AM CDT 9:29 PM CDT
Nautical Twilight 5:09 AM CDT 10:07 PM CDT
Astronomical Twilight 4:26 AM CDT 10:50 PM CDT
Moon 2:54 AM CDT (7/3) 5:12 PM CDT (7/3)
Length of Visible Light 15h 41m
Length of Day
14h 39m
Waning Crescent, 18% of the Moon is Illuminated
Jul 3
Waning Crescent
Jul 8
New
Jul 15
First Quarter
Jul 22
Full
Jul 29
Last Quarter

Hourly Weather History & Observations

Time (CDT) Temp. Dew Point Humidity Pressure Visibility Wind Dir Wind Speed Gust Speed Precip Events Conditions
12:56 AM 68.0 °F 45.0 °F 43% 30.08 in - SE 3.5 mph - N/A   Unknown
1:56 AM 63.0 °F 46.9 °F 56% 30.07 in - Calm Calm - N/A   Unknown
2:56 AM 60.1 °F 48.9 °F 67% 30.07 in - Calm Calm - N/A   Unknown
3:56 AM 60.1 °F 48.0 °F 64% 30.06 in - Calm Calm - N/A   Unknown
4:56 AM 57.0 °F 48.9 °F 74% 30.06 in - Calm Calm - N/A   Unknown
5:56 AM 55.9 °F 48.9 °F 77% 30.06 in - East 4.6 mph - N/A   Unknown
6:56 AM 55.0 °F 50.0 °F 83% 30.07 in - ENE 3.5 mph - N/A   Unknown
7:56 AM 55.9 °F 52.0 °F 87% 30.08 in - Calm Calm - N/A   Unknown
8:56 AM 68.0 °F 48.9 °F 50% 30.09 in - SSE 3.5 mph - N/A   Unknown
9:56 AM 73.0 °F 46.9 °F 39% 30.07 in - South 6.9 mph - N/A   Unknown
10:56 AM 78.1 °F 48.0 °F 35% 30.05 in - South 10.4 mph - N/A   Unknown
11:56 AM 79.0 °F 51.1 °F 38% 30.05 in - ENE 16.1 mph - N/A   Unknown
12:56 PM 81.0 °F 50.0 °F 34% 30.03 in - East 11.5 mph - N/A   Unknown
1:56 PM 84.0 °F 48.0 °F 28% 30.00 in - Variable 5.8 mph - N/A   Unknown
2:56 PM 84.9 °F 46.0 °F 26% 29.99 in - Variable 4.6 mph 17.3 mph N/A   Unknown
3:56 PM 84.9 °F 45.0 °F 25% 29.96 in - East 8.1 mph - N/A   Unknown
4:56 PM 84.9 °F 44.1 °F 24% 29.95 in - SSE 5.8 mph - N/A   Unknown
5:56 PM 84.9 °F 45.0 °F 25% 29.93 in - SE 9.2 mph - N/A   Unknown
6:56 PM 84.9 °F 45.0 °F 25% 29.92 in - SE 9.2 mph - N/A   Unknown
7:56 PM 82.9 °F 45.0 °F 26% 29.92 in - SSE 6.9 mph - N/A   Unknown
8:56 PM 79.0 °F 46.9 °F 32% 29.93 in - SE 8.1 mph 16.1 mph N/A   Unknown
9:56 PM 75.0 °F 46.9 °F 37% 29.95 in - SE 8.1 mph - N/A   Unknown
10:56 PM 73.9 °F 48.0 °F 40% 29.97 in - SE 9.2 mph - N/A   Unknown
11:56 PM 71.1 °F 48.9 °F 45% 29.97 in - ESE 5.8 mph - N/A   Unknown